Location: Newark
(58.9986°N, 38.5006°E)
Time: 23:50:25
(UTC+00:00)

A-11 Canister half - All Passes

Search period start: 18 April 2021 00:00
Search period end: 28 April 2021 00:00
Orbit: 1515 x 1685 km, 47.2° (Epoch: 18 April)

Date Brightness Start Highest point End Pass type
(mag) Time Alt. Az. Time Alt. Az. Time Alt. Az.
18 Apr - 01:32:21 10° W 01:39:02 21° SW 01:45:50 10° S daylight
18 Apr - 17:03:05 10° SE 17:04:47 11° SE 17:06:29 10° ESE daylight
18 Apr - 18:59:16 10° SSW 19:06:49 28° SSE 19:14:36 10° E visible
18 Apr - 21:01:14 10° WSW 21:09:55 41° S 21:18:55 10° ESE visible
18 Apr - 23:04:44 10° W 23:13:21 38° SSW 23:22:13 10° SE visible
19 Apr - 01:09:22 10° W 01:16:14 22° SW 01:23:13 10° S visible
19 Apr - 18:36:36 10° SSW 18:44:02 27° SSE 18:51:38 10° E visible
19 Apr - 20:38:26 10° SW 20:47:04 41° S 20:56:00 10° ESE visible
19 Apr - 22:41:53 10° WSW 22:50:30 38° SSW 22:59:22 10° SE visible
20 Apr - 00:46:25 10° W 00:53:26 23° SW 01:00:35 10° S visible
20 Apr - 18:13:57 10° SSW 18:21:14 26° SE 18:28:41 10° E visible
20 Apr - 20:15:39 10° SW 20:24:14 40° S 20:33:06 10° ESE visible
20 Apr - 22:19:01 10° WSW 22:27:39 39° SSW 22:36:33 10° SE visible
21 Apr - 00:23:28 10° W 00:30:37 24° SW 00:37:56 10° S visible
21 Apr - 17:51:19 10° SSW 17:58:26 25° SE 18:05:43 10° E visible
21 Apr - 19:52:51 10° SW 20:01:23 40° SSE 20:10:12 10° ESE visible
21 Apr - 21:56:11 10° WSW 22:04:48 39° SSW 22:13:42 10° SE visible
22 Apr - 00:00:32 10° W 00:07:49 25° SW 00:15:16 10° SSE visible
22 Apr - 17:28:42 10° SSW 17:35:39 24° SE 17:42:45 10° E visible
22 Apr - 19:30:04 10° SW 19:38:33 39° SSE 19:47:19 10° ESE visible
22 Apr - 21:33:19 10° WSW 21:41:57 40° SSW 21:50:51 10° SE visible
22 Apr - 23:37:37 10° W 23:45:00 25° SW 23:52:34 10° SSE visible
23 Apr - 17:06:06 10° S 17:12:52 23° SE 17:19:45 10° E daylight
23 Apr - 19:07:18 10° SW 19:15:42 38° SSE 19:24:24 10° ESE visible
23 Apr - 21:10:29 10° WSW 21:19:06 40° S 21:28:00 10° SE visible
23 Apr - 23:14:41 10° W 23:22:12 26° SSW 23:29:52 10° SSE visible
24 Apr - 16:43:31 10° S 16:50:05 22° SE 16:56:46 10° E daylight
24 Apr - 18:44:31 10° SW 18:52:53 38° SSE 19:01:30 10° ESE visible
24 Apr - 20:47:38 10° WSW 20:56:15 40° S 21:05:09 10° SE visible
24 Apr - 22:51:47 10° W 22:59:23 27° SSW 23:07:10 10° SSE visible
25 Apr - 01:00:45 10° WSW 01:01:30 10° SW 01:02:16 10° SW visible
25 Apr - 16:20:57 10° S 16:27:19 21° SE 16:33:47 10° E daylight
25 Apr - 18:21:45 10° SW 18:30:03 37° SSE 18:38:36 10° E visible
25 Apr - 20:24:49 10° WSW 20:33:25 41° S 20:42:18 10° ESE visible
25 Apr - 22:28:53 10° W 22:36:33 28° SSW 22:44:27 10° SSE visible
26 Apr - 00:36:30 10° WSW 00:38:45 11° SW 00:41:01 10° SW visible
26 Apr - 15:58:24 10° S 16:04:32 20° SE 16:10:45 10° E daylight
26 Apr - 17:58:59 10° SW 18:07:13 36° SSE 18:15:41 10° E visible
26 Apr - 20:01:59 10° WSW 20:10:34 41° S 20:19:26 10° ESE visible
26 Apr - 22:05:59 10° W 22:13:44 29° SSW 22:21:43 10° SSE visible
27 Apr - 00:12:57 10° WSW 00:16:00 12° SW 00:19:05 10° SSW visible
27 Apr - 15:35:53 10° S 15:41:46 19° SE 15:47:44 10° E daylight
27 Apr - 17:36:15 10° SW 17:44:23 36° SSE 17:52:47 10° E daylight
27 Apr - 19:39:09 10° WSW 19:47:43 41° S 19:56:35 10° ESE visible
27 Apr - 21:43:06 10° W 21:50:55 30° SSW 21:58:58 10° SSE visible
27 Apr - 23:49:36 10° WSW 23:53:15 13° SW 23:56:56 10° SSW visible
